This is the latest recevied weather packets stored in our database for station/object K8RRT. If no packets are shown the sender has not sent any weather packets the latest 10 day(s).
| Time | Temp. | Humidity | Pressure | Rain* | Wind** | Luminosity | Snow |
|---|---|---|---|---|---|---|---|
| 1777861725 | 10° C | 72% | 1011.3 hPa | 0 mm | - | 0 W/m² | - |
| 1777861423 | 10° C | 71% | 1011.4 hPa | 0 mm | - | 0 W/m² | - |
| 1777861119 | 10° C | 69% | 1011.2 hPa | 0 mm | - | 0 W/m² | - |
| 1777860817 | 10.56° C | 70% | 1011 hPa | 0 mm | - | 0 W/m² | - |
| 1777860514 | 10.56° C | 68% | 1011.2 hPa | 0 mm | - | 0 W/m² | - |
| 1777860210 | 10.56° C | 67% | 1010.8 hPa | 0 mm | - | 0 W/m² | - |
| 1777859906 | 10.56° C | 67% | 1010.9 hPa | 0 mm | - | 0 W/m² | - |
| 1777859603 | 10.56° C | 67% | 1010.9 hPa | 0 mm | - | 0 W/m² | - |
| 1777859299 | 10° C | 68% | 1010.9 hPa | 0 mm | - | 0 W/m² | - |
| 1777858995 | 10.56° C | 68% | 1010.9 hPa | 0 mm | - | 0 W/m² | - |
| 1777858693 | 10.56° C | 67% | 1010.7 hPa | 0 mm | - | 0 W/m² | - |
| 1777858391 | 10.56° C | 66% | 1010.9 hPa | 0 mm | - | 0 W/m² | - |
| 1777858087 | 10.56° C | 63% | 1010.9 hPa | 0 mm | - | 0 W/m² | - |
| 1777857785 | 10.56° C | 64% | 1010.9 hPa | 0 mm | - | 0 W/m² | - |
| 1777857483 | 11.11° C | 64% | 1010.8 hPa | 0 mm | - | 0 W/m² | - |
| 1777857179 | 11.11° C | 62% | 1010.6 hPa | 0 mm | - | 0 W/m² | - |
| 1777856874 | 11.11° C | 62% | 1010.9 hPa | 0 mm | - | 0 W/m² | - |
| 1777856570 | 11.67° C | 65% | 1010.9 hPa | 0 mm | - | 0 W/m² | - |
| 1777856268 | 11.67° C | 60% | 1010.9 hPa | 0 mm | - | 0 W/m² | - |
| 1777855964 | 11.67° C | 57% | 1010.8 hPa | 0 mm | - | 0 W/m² | - |
| 1777855662 | 11.11° C | 57% | 1010.7 hPa | 0 mm | - | 0 W/m² | - |
| 1777855359 | 11.11° C | 59% | 1011 hPa | 0 mm | - | 0 W/m² | - |
| 1777855055 | 11.67° C | 57% | 1011.1 hPa | 0 mm | - | 0 W/m² | - |
| 1777854752 | 11.67° C | 59% | 1010.8 hPa | 0 mm | - | 0 W/m² | - |
| 1777854449 | 12.22° C | 57% | 1010.8 hPa | 0 mm | - | 0 W/m² | - |
* Rain latest hour (hover to see other rain measurements)
** Current wind speed in m/s (hover to see current wind gust speed)